Location: Bottens
(46.6171°N, 6.6605°E)
Time: 19:03:20
(UTC+00:00)

X-37B - Pass Details

Date: 20 June 2021
Orbit: 383 x 392 km, 45.0° (Epoch: 01 July)

Event Time Altitude Azimuth Distance (km) Brightness Sun altitude
Exits shadow 02:01:00 10° 269° (W) 1,409 3.1 -12.6°
Reaches altitude 10° 02:01:01 10° 269° (W) 1,406 3.1 -12.6°
Maximum altitude 02:04:05 49° 193° (SSW) 504 0.7 -12.3°
Drops below altitude 10° 02:07:09 10° 117° (ESE) 1,406 3.5 -12.0°
Sets 02:09:15 0° 112° (ESE) 2,260 4.6 -11.7°
